(52) Europa
ephemeris date magn radius delta ra dec elong phase
Today13 Jul 202611.92.748 AU3.761 AU07h11m+20°14'4.2°1.6°
Opposition24 Feb 202710.52.829 AU1.842 AU10h39m+14°11'174.6°1.9°
(52) Europa - 2026-07-13
astro.vanbuitenen.nl


 
-1 year
-1 month
-1 day
Now
+1 day
+1 month
+1 year

The interactive orbit chart above shows the body's path through the solar system and its position at the given date. Green and blue lines are shown perpendicular to the ecliptic plane: Green if the path is above the ecliptic plane, blue if it is below. (Left-click and drag to rotate the view; Right-click and drag to move the view; Use scroll wheel to zoom in our out.)

The orbital elements of Europa are:

            e (Eccentricity)                : 0.1124827
            a (Semimajor axis)              : 3.0941359
            i (Inclination)                 : 7.48150
            Ω (Longitude of ascending node) : 128.57341
            ω (Argument of perihelion)      : 342.80398
            M (Mean anomaly)                : 348.92279
            Epoch                           : 2026 Jun 09

            L (Longitude of perihelion)     : 111.51525
            B (Latitude of perihelion)      : -2.20611
            P (Orbital period in years)     : 5.44            
        

The light curve chart below shows the estimated development of the minor planet's magnitude.


The all-sky chart below shows the path of the minor planet over the same period as the light curve. The current position is marked yellow.





The following chart shows the path of the minor planet in the next few days. The field of view is optimized for (~10x50) binoculars and finderscopes.




Ephemerides:
Date       Time       RA (2000)    DEC (2000)    delta   radius  elong  phase   PA    magn
2026-07-13 00:00 UT   07 11 11.9   +20 14 53     3.761    2.748    4.2    1.6   246   11.9 
2026-07-13 10:14 UT   07 11 57.9   +20 14 03     3.760    2.748    4.4    1.6   248   11.9 
2026-07-14 00:00 UT   07 12 59.9   +20 12 55     3.760    2.748    4.7    1.7   250   11.9 
2026-07-15 00:00 UT   07 14 47.7   +20 10 52     3.758    2.747    5.1    1.9   253   11.9 
2026-07-16 00:00 UT   07 16 35.5   +20 08 45     3.757    2.747    5.6    2.1   256   12.0 
2026-07-17 00:00 UT   07 18 23.3   +20 06 33     3.756    2.747    6.1    2.2   258   12.0 
2026-07-18 00:00 UT   07 20 10.9   +20 04 17     3.754    2.747    6.6    2.4   260   12.0 
2026-07-19 00:00 UT   07 21 58.5   +20 01 57     3.753    2.747    7.1    2.6   261   12.0 
2026-07-20 00:00 UT   07 23 45.9   +19 59 31     3.751    2.747    7.6    2.8   263   12.0 
2026-07-21 00:00 UT   07 25 33.3   +19 57 02     3.749    2.747    8.1    3.0   264   12.0 
2026-07-22 00:00 UT   07 27 20.6   +19 54 28     3.747    2.747    8.6    3.2   265   12.0 
2026-07-23 00:00 UT   07 29 07.7   +19 51 50     3.745    2.747    9.1    3.4   266   12.0 
2026-07-24 00:00 UT   07 30 54.7   +19 49 07     3.743    2.747    9.6    3.6   267   12.1 
2026-07-25 00:00 UT   07 32 41.7   +19 46 20     3.741    2.747   10.2    3.7   268   12.1 
2026-07-26 00:00 UT   07 34 28.5   +19 43 29     3.738    2.747   10.7    3.9   269   12.1 
2026-07-27 00:00 UT   07 36 15.2   +19 40 34     3.736    2.746   11.2    4.1   270   12.1 
2026-07-28 00:00 UT   07 38 01.7   +19 37 34     3.733    2.746   11.7    4.3   270   12.1 
2026-07-29 00:00 UT   07 39 48.2   +19 34 31     3.730    2.746   12.3    4.5   271   12.1 
2026-07-30 00:00 UT   07 41 34.5   +19 31 23     3.727    2.746   12.8    4.7   272   12.1 
2026-07-31 00:00 UT   07 43 20.7   +19 28 11     3.724    2.746   13.3    4.9   272   12.1 
2026-08-01 00:00 UT   07 45 06.7   +19 24 55     3.721    2.746   13.8    5.1   273   12.1 
2026-08-02 00:00 UT   07 46 52.6   +19 21 35     3.718    2.746   14.4    5.3   273   12.1 


    Terminology:
            
    delta:  distance between minor planet and earth in AU
    radius: distance between minor planet and sun in AU
    magn:   magnitude (brightness) estimate    
    ra:     right ascension in hours (24h = 360deg)
    dec:    declination in degrees
    elong:  elongation in degrees (angle sun-earth-minor planet)    
    phase:  phase angle in degrees (angle sun-minor planet-earth)        
    AU:     Astronomical Unit (mean distance between earth and sun: 149597870.7 km
    

Orbital elements provided by the MPC (Minor Planet Center).
Calculations by a modified version of AAPlus, a C# implementation of the AA+ project by PJ Naughter from the algorithms presented in the book "Astronomical Algorithms" by Jean Meeus.
NGC2000 dso catalog and star labels from VizieR as provided by the Strasbourg astronomical Data Center.
Tycho2 catalog from the ESO archive.